sat.trackr.live / text

‹ back to catalog

STARLINK-36481

NORAD 67307 · 2026-002C

PAYLOAD ACTIVE UNKNOWN

§ Identity

Operator
Country
US
Launch date
2026-01-04
Launch site
AFETR
Launch vehicle
Mass (kg)
RCS (m²)

Purposes: comms

External: N2YO · Heavens-Above · Gunter

§ Orbital elements

Epoch: 2026-09-19T11:14:00.816864Z

Period
94.27 min
Inclination
43.0080°
Eccentricity
0.0002964
Mean motion
15.27587922 rev/d
Perigee alt
481.0 km
Apogee alt
485.1 km
Semi-major
6,861.2 km
B*
3.8123e-4
RAAN
311.0215°
Arg perigee
304.7944°
Mean anomaly
55.2629°
Rev number
4,071

§ Raw data

STARLINK-364811 67307U 26002C   26262.46806501  .00010246  00000+0  38123-3 0  99932 67307  43.0080 311.0215 0002964 304.7944  55.2629 15.27587922 40714

JSON: /api/v1/satellites/67307 · /tle

For live sub-satellite position, see the globe view (requires WebGL).

§ Visibility from observer

Set your observer location to see the next 7 days of passes ≥ 10°. The values pass through the URL so the page stays shareable.

No JS? Fill the form by hand. The geolocation button needs JavaScript.